Location: Saint Louis
(38.6272°N, 90.1978°W)
Time: 21:05:55
(UTC-05:00)

ISS - Pass Details

Date: 30 January 2013
Orbit: 401 x 404 km, 51.6° (Epoch: 28 July)

Event Time Altitude Azimuth Distance (km) Brightness Sun altitude
Exits shadow 06:21:27 13° 299° (WNW) 1,307 -1.4 -9.5°
Maximum altitude 06:24:16 54° 223° (SW) 507 -3.0 -8.9°
Drops below altitude 10° 06:27:31 10° 145° (SE) 1,480 0.4 -8.3°
Sets 06:29:38 0° 140° (SE) 2,344 1.6 -7.9°
